Gwinn, MI

12:25 PM EST on February 26, 2017 (GMT -0500)
Sawyer International

Weather History for KSAW - May, 2013

Change the Weather History Date:

Friday, May 17, 2013

  Actual Average (KESC) Record (KESC)
Temperature  
Mean Temperature 49 °F -  
Max Temperature 66 °F 58 °F 80 °F (1998)
Min Temperature 32 °F 43 °F 28 °F (2014)
Degree Days  
Heating Degree Days 16    
Moisture  
Dew Point 36 °F    
Average Humidity 69    
Maximum Humidity 91    
Minimum Humidity 32    
Precipitation  
Precipitation 0.00 in - - ()
Sea Level Pressure  
Sea Level Pressure 30.13 in    
Wind  
Wind Speed 2 mph (ESE)    
Max Wind Speed 12 mph    
Max Gust Speed -    
Visibility 10 miles    
Events      
Averages and records for this station are not official NWS values.
T = Trace of Precipitation, MM = Missing Value Source: NWS Daily Summary

Daily Weather History Graph

Daily Weather History Graph

Search for Another Location

Airport or City:

Trip Planner

Search our weather history database for the weather conditions in past years. The results will help you decide how hot, cold, wet, or windy it might be!

Date:

Astronomy

May. 17, 2013 Rise Set
Actual Time 6:13 AM EDT 9:18 PM EDT
Civil Twilight 5:38 AM EDT 9:54 PM EDT
Nautical Twilight 4:51 AM EDT 10:41 PM EDT
Astronomical Twilight 3:55 AM EDT 11:37 PM EDT
Moon 12:56 PM EDT (5/17) 2:02 AM EDT (5/17)
Length of Visible Light 16h 16m
Length of Day
15h 05m
Waxing Crescent, 45% of the Moon is Illuminated
May 17
Waxing Crescent
May 18
First Quarter
May 25
Full
May 31
Last Quarter
Jun 8
New

Hourly Weather History & Observations

Time (EDT) Temp. Windchill Dew Point Humidity Pressure Visibility Wind Dir Wind Speed Gust Speed Precip Events Conditions
12:17 AM 34.7 °F - 31.6 °F 89% 30.10 in 10.0 mi Calm Calm - N/A   Clear
12:37 AM 35.6 °F - 32.9 °F 90% 30.10 in 10.0 mi Calm Calm - N/A   Clear
12:57 AM 32.9 °F - 30.4 °F 90% 30.10 in 10.0 mi Calm Calm - N/A   Clear
1:17 AM 35.4 °F - 32.9 °F 91% 30.11 in 10.0 mi Calm Calm - N/A   Clear
1:37 AM 36.9 °F 32.2 °F 32.5 °F 84% 30.10 in 10.0 mi North 5.8 mph - N/A   Clear
1:57 AM 34.5 °F - 31.3 °F 88% 30.10 in 10.0 mi Calm Calm - N/A   Clear
2:16 AM 34.5 °F - 32.0 °F 90% 30.10 in 10.0 mi Calm Calm - N/A   Clear
2:37 AM 35.8 °F 30.9 °F 32.7 °F 89% 30.10 in 10.0 mi NNE 5.8 mph - N/A   Clear
2:57 AM 38.3 °F - 34.7 °F 87% 30.10 in 10.0 mi Calm Calm - N/A   Clear
3:17 AM 39.7 °F 36.5 °F 34.2 °F 80% 30.10 in 10.0 mi NE 4.6 mph - N/A   Clear
3:37 AM 39.6 °F 35.4 °F 34.2 °F 81% 30.10 in 10.0 mi NE 5.8 mph - N/A   Scattered Clouds
3:56 AM 39.4 °F 37.2 °F 34.0 °F 81% 30.10 in 10.0 mi NE 3.5 mph - N/A   Scattered Clouds
4:17 AM 39.2 °F - 34.2 °F 82% 30.11 in 10.0 mi Calm Calm - N/A   Clear
4:37 AM 39.6 °F - 34.2 °F 81% 30.11 in 10.0 mi Calm Calm - N/A   Scattered Clouds
4:57 AM 37.6 °F - 33.4 °F 85% 30.11 in 10.0 mi Calm Calm - N/A   Scattered Clouds
5:17 AM 36.9 °F - 33.3 °F 87% 30.11 in 10.0 mi Calm Calm - N/A   Scattered Clouds
5:36 AM 37.2 °F - 33.6 °F 87% 30.11 in 10.0 mi Calm Calm - N/A   Mostly Cloudy
5:57 AM 37.6 °F - 34.0 °F 87% 30.12 in 10.0 mi Calm Calm - N/A   Overcast
6:50 AM 39.2 °F - 33.8 °F 81% 30.13 in 10.0 mi Calm Calm - N/A   Mostly Cloudy
7:50 AM 42.8 °F - 35.6 °F 76% 30.16 in 10.0 mi Calm Calm - N/A   Mostly Cloudy
8:50 AM 44.6 °F - 37.4 °F 76% 30.19 in 10.0 mi Calm Calm - N/A   Overcast
9:50 AM 46.4 °F - 37.4 °F 71% 30.18 in 10.0 mi Calm Calm - N/A   Mostly Cloudy
10:50 AM 48.2 °F - 37.4 °F 66% 30.17 in 10.0 mi SE 3.5 mph - N/A   Mostly Cloudy
11:50 AM 53.6 °F - 37.4 °F 54% 30.17 in 10.0 mi Calm Calm - N/A   Clear
12:50 PM 59.0 °F - 39.2 °F 48% 30.16 in 10.0 mi Calm Calm - N/A   Mostly Cloudy
1:50 PM 62.6 °F - 37.4 °F 39% 30.15 in 10.0 mi SE 8.1 mph - N/A   Scattered Clouds
2:50 PM 64.4 °F - 33.8 °F 32% 30.14 in 10.0 mi South 5.8 mph - N/A   Scattered Clouds
3:50 PM 66.2 °F - 35.6 °F 32% 30.13 in 10.0 mi South 10.4 mph - N/A   Partly Cloudy
4:50 PM 64.4 °F - 39.2 °F 40% 30.12 in 10.0 mi NE 11.5 mph - N/A   Partly Cloudy
5:50 PM 62.6 °F - 39.2 °F 42% 30.11 in 10.0 mi East 9.2 mph - N/A   Clear
6:55 PM 62.6 °F - 39.2 °F 42% 30.11 in 10.0 mi East 5.8 mph - N/A   Clear
7:50 PM 59.0 °F - 39.2 °F 48% 30.11 in 10.0 mi ENE 4.6 mph - N/A   Clear
9:50 PM 57.2 °F - 37.4 °F 48% 30.15 in 10.0 mi SSE 8.1 mph - N/A   Clear
10:17 PM 55.4 °F - 37.2 °F 50% 30.16 in 10.0 mi SSE 6.9 mph - N/A   Clear
10:37 PM 54.5 °F - 37.8 °F 53% 30.16 in 10.0 mi SSE 8.1 mph - N/A   Clear
10:57 PM 53.8 °F - 38.8 °F 57% 30.17 in 10.0 mi South 8.1 mph - N/A   Scattered Clouds
11:16 PM 53.6 °F - 39.4 °F 59% 30.17 in 10.0 mi South 9.2 mph - N/A   Overcast
11:37 PM 52.7 °F - 40.1 °F 62% 30.17 in 10.0 mi South 5.8 mph - N/A   Mostly Cloudy
11:57 PM 52.0 °F - 40.1 °F 64% 30.16 in 10.0 mi SSE 3.5 mph - N/A   Scattered Clouds